Location: Killam
(52.7910°N, 111.8608°W)
Time: 22:50:30
(UTC+00:00)

SR - Pass Details

Date: 21 February 2026
Orbit: 572 x 849 km, 66.7° (Epoch: 11 March)

Event Time Altitude Azimuth Distance (km) Brightness Sun altitude
Exits shadow 10:12:51 11° 78° (ENE) 1,910 ? -37.9°
Drops below altitude 10° 10:13:08 10° 75° (ENE) 1,968 ? -37.8°
Sets 10:16:24 0° 51° (NE) 2,931 ? -37.4°
